Regional Weather Roundup
Issued by NWS

Home | Current Version | Previous Version | Text Only | Print | Product List | Glossary Off
Versions: 1 2 3 4 5 6 7 8 9 10 11 12 13 14 15 16 17 18 19 20 21 22 23 24 25 26 27 28 29 30 31 32 33 34 35 36 37 38 39 40 41 42 43 44 45 46 47 48 49 50

000
ASUS43 KOAX 010610
RWRNE

WEATHER ROUNDUP FOR NEBRASKA
NATIONAL WEATHER SERVICE OMAHA NE
100 AM CDT MON SEP 01 2014

NOTES: SATELLITE DATA IS BEING USED TO AUGMENT CLOUD COVER ABOVE
       12000 FEET.
       "FAIR" INDICATES FEW OR NO CLOUDS BELOW 12,000 FEET WITH NO
       SIGNIFICANT WEATHER AND/OR OBSTRUCTIONS TO VISIBILITY.

  * THESE STATIONS DO NOT REPORT WEATHER SUCH AS RAIN...SNOW OR FOG.

NEZ001>004-019>022-054>056-010700-
NEBRASKA PANHANDLE

CITY           SKY/WX    TMP DP  RH WIND       PRES   REMARKS
SCOTTSBLUFF    CLEAR     51  48  89 W6        29.96S
6HR MIN TEMP:  50; 6HR MAX TEMP:  70;

ALLIANCE       CLEAR     48  46  93 W7        29.94R
6HR MIN TEMP:  48; 6HR MAX TEMP:  67; 6HR PCP:  0.10;

CHADRON        CLEAR     51  50  96 SW7       29.91R
6HR MIN TEMP:  51; 6HR MAX TEMP:  62; 6HR PCP: TRACE;

KIMBALL        PTCLDY    52  44  76 W5        29.99R
SIDNEY         PTCLDY    49  44  83 NW9       29.98R
6HR MIN TEMP:  48; 6HR MAX TEMP:  79;

$$

NEZ057>060-069>072-079>082-010700-
SOUTHWEST NEBRASKA

CITY           SKY/WX    TMP DP  RH WIND       PRES   REMARKS
NORTH PLATTE   CLEAR     54  51  90 NW8       29.86F
6HR MIN TEMP:  54; 6HR MAX TEMP:  71; 6HR PCP: TRACE;

IMPERIAL       PTCLDY    58  50  75 NW12      29.89R
6HR MIN TEMP:  58; 6HR MAX TEMP:  76;

LEXINGTON      MOCLDY    60  56  88 W7        29.83R
MCCOOK         PTCLDY    63  57  81 NW10      29.84S
6HR MIN TEMP:  61; 6HR MAX TEMP:  71; 6HR PCP: TRACE;

OGALLALA       CLEAR     52  50  92 NW8       29.91R
$$

NEZ005>010-023>029-035>040-094-010700-
NORTH CENTRAL NEBRASKA

CITY           SKY/WX    TMP DP  RH WIND       PRES   REMARKS
VALENTINE      CLEAR     55  54  96 W6        29.83S
6HR MIN TEMP:  55; 6HR MAX TEMP:  72; 6HR PCP: TRACE;

AINSWORTH      PTCLDY    55  54  94 NW6       29.82F
BROKEN BOW     CLEAR     59  54  83 W12       29.80S
6HR MIN TEMP:  57; 6HR MAX TEMP:  71;

O`NEILL        PTCLDY    62  61  97 NW9       29.76R
ORD            CLEAR     59  54  83 W8        29.75R
6HR MIN TEMP:  57; 6HR MAX TEMP:  73;

THEDFORD       CLEAR     55  53  91 NW6       29.87R
$$

NEZ041-046>049-061>064-073>077-083>087-010700-
SOUTH CENTRAL NEBRASKA

CITY           SKY/WX    TMP DP  RH WIND       PRES   REMARKS
GRAND ISLAND   FAIR      62  59  90 S8        29.76F
6HR MIN TEMP:  61; 6HR MAX TEMP:  75;

AURORA         FAIR      61  61 100 SW7       29.77R
HASTINGS       FAIR      64  59  83 W8        29.78R
6HR MIN TEMP:  63; 6HR MAX TEMP:  75;

HEBRON         FAIR      66  64  90 NW5       29.76R
HOLDREGE       FAIR      63  58  85 CALM      29.80R
KEARNEY *      FAIR      63  57  82 SW7       29.79S
YORK           FAIR      61 N/A N/A W7        29.76R
$$

NEZ011>018-030>034-042>045-010700-
NORTHEAST NEBRASKA

CITY           SKY/WX    TMP DP  RH WIND       PRES   REMARKS
NORFOLK        FAIR      62  60  93 NW3       29.67F
6HR MIN TEMP:  62; 6HR MAX TEMP:  73;

ALBION         FAIR      61  57  88 CALM      29.69F
BLAIR          FAIR      67  65  93 SW5       29.69S
FREMONT        FAIR      65  64  96 NW5       29.70F
TEKAMAH        FAIR      65  63  93 CALM      29.70R
6HR MIN TEMP:  65; 6HR MAX TEMP:  69; 6HR PCP:  0.38;

WAYNE          FAIR      61  60  97 CALM      29.69F
$$

NEZ050>053-065>068-078-088>093-010700-
SOUTHEAST NEBRASKA

CITY           SKY/WX    TMP DP  RH WIND       PRES   REMARKS
LINCOLN        FAIR      68  66  93 SW5       29.72F
6HR MIN TEMP:  67; 6HR MAX TEMP:  73; 6HR PCP:  0.20;

OMAHA EPPLEY   CLOUDY    70  66  87 S15       29.70R
6HR MIN TEMP:  69; 6HR MAX TEMP:  84; 6HR PCP:  0.08;

BEATRICE       FAIR      68  66  91 S9        29.74R
FALLS CITY     LGT RAIN  68  65  90 S10G24    29.75F
6HR MIN TEMP:  68; 6HR MAX TEMP:  85; 6HR PCP:  0.41;

NEBRASKA CITY  FAIR      66  66 100 S15G21    29.73F
PLATTSMOUTH    FAIR      68  65  89 S13       29.71F
$$

NEZ044-045-051>053-067-010700-
OMAHA AREA

CITY           SKY/WX    TMP DP  RH WIND       PRES   REMARKS
OMAHA EPPLEY   CLOUDY    70  66  87 S15       29.70R
6HR MIN TEMP:  69; 6HR MAX TEMP:  84; 6HR PCP:  0.08;

BLAIR          FAIR      67  65  93 SW5       29.69S
FREMONT        FAIR      65  64  96 NW5       29.70F
MILLARD        FAIR      69  67  92 SE8       29.69S
OFFUTT AFB     FAIR      69  69  99 S10       29.70F
PLATTSMOUTH    FAIR      68  65  89 S13       29.71F
WAHOO          FAIR      66  63  90 SW5       29.70S
$$


USA.gov is the U.S. government's official web portal to all federal, state and local government web resources and services.